Showing default

HJS-4A, 58691

Orbit data source: Space-Track

HJS-4A, 58691 is a payload satellite owned by CASC (CN) in LEO that was launched on Sat, 30 Dec 2023 UTC via a CHANG ZHENG 2C/YZ-1S launch vehicle from the Jiuquan Satellite Launch Center, China (JSC). Payloads include a variety of satellites, spacecraft, and rockets equipped with specific instruments for various scientific and technological missions. These include communications satellites like Starlink; space stations such as the ISS; scientific satellites like the Hubble; Earth observation satellites from companies like Planet Labs, Umbra, and HawkEye 360; GPS; miniature CubeSats for education and research; and military/defense satellites.

Loading next visibility...
HJS-4A details
Identifier
58691, 2023-212A
Orbit
LEO
Last TLE update4 hours ago
Origin
Flag of CNCASC (CN / PRC)
ManufacturerCAST
MissionOperational Civil Communications
Bus & MotorUnknown
Mass~300 kg wet, ~300 kg dry
Launch date (UTC)
2023-12-30 (1 year ago)
Launch vehicle
CHANG ZHENG 2C/YZ-1S
Launch site
Jiuquan Satellite Launch Center, China (JSC)
Object type
Payload
Rocket body
Debris
Shape & HBRBox + 2 Pan, 2.5 m
Radar Cross Section2.320 m², Large (>1 m²)

Expand to show TLE details & history

TLE from 4 hours ago
0 HJS-4A
1 58691U 23212A   24356.56796652 -.00000075  00000-0  94521-4 0  9993
2 58691  49.9976 171.6224 0000082 110.2201 249.8685 13.41411123 48426
Epoch: 2024-12-21T13:37Z
Definitive object data (Epoch: 2024-12-21T13:37:52.307Z)
Latitude-0.00002°
Longitude-123.46283°
Altitude1,104.557 km
Speed7.301 km/s
True Right ascension11h 26m 29s
True Declination0° 00' 00"
Sunlit
Object was in daylight at TLE epoch
Visualization TLE readout
Latitude3.54848°
Longitude-121.04466°
Altitude1,104.163 km
Speed7.302 km/s
Apparent Right ascension09h 02m 19s
Apparent Declination-25° 59' 46"
Sunlit
Object is in daylight
Visualization observer readout
Local Sidereal Time16:16:23
Azimuth259.824° W
Elevation-30.015°
Doppler factor1
Orbital elements
Apogee altitude1,104.799 km
Perigee altitude1,104.676 km
Semi-major axis7,482.874 km
Eccentricity0.0000082
Inclination49.9976°
RAAN171.6224°
Arg. of periapsis110.2201°
True anomaly249.86762°
Mean anomaly249.8685°
Eccentric anomaly249.86806°
Mean motion3.35305 °/min
BSTAR0.000094521
Orbital period107.36 mins
Loading maneuver chart data...
Loading historical data...
Loading historical data...
Loading historical data...
Loading historical data...
Loading historical data...
Loading historical data...
Loading historical data...
Other satellites on launch #212 in the year 2023 (2023-12-30 UTC)

HJS-4A Visibility forecast

Observer location: undefined°, undefined

Span
Click to sort rows by Start time (UTC) header in descending order
Start Az.
Max El. time (UTC)
Max El. Az.
Max El.
End time (UTC)
End Az.
12 mins2024-12-21 17:30:48.576Z286.064° WNW2024-12-21 17:36:48.576Z354.533° N32.179°2024-12-21 17:42:48.576Z57.175° ENE
11 mins2024-12-21 19:25:48.576Z312.135° NW2024-12-21 19:30:48.576Z18.81° NNE34.046°2024-12-21 19:36:48.576Z83.038° E
13 mins2024-12-21 21:17:48.576Z303.54° NW2024-12-21 21:23:48.576Z228.958° WSW44.976°2024-12-21 21:30:48.576Z127.436° SE
9 mins2024-12-21 23:11:48.576Z273.432° WNW2024-12-21 23:15:48.576Z231.897° WSW22.07°2024-12-21 23:20:48.576Z184.406° SSW
9 mins2024-12-22 13:00:48.576Z165.571° S2024-12-22 13:04:48.576Z123.866° SE21.254°2024-12-22 13:09:48.576Z78.585° E
12 mins2024-12-22 14:50:48.576Z231.006° WSW2024-12-22 14:56:48.576Z83.148° E44.625°2024-12-22 15:02:48.576Z56.837° ENE
11 mins2024-12-22 16:44:48.576Z282.149° WNW2024-12-22 16:49:48.576Z348.861° N34.336°2024-12-22 16:55:48.576Z53.868° ENE
|